Time,TemperatureF,DewpointF,PressureIn,WindDirection,WindDirectionDegrees,WindSpeedMPH,WindSpeedGustMPH,Humidity,HourlyPrecipIn,Conditions,Clouds,dailyrainin,SoftwareType,DateUTC
2013-07-03 00:28:00,64.7,56.2,30.03,ESE,123,0.0,0.0,74,0.00,,,0.00,Wunderground v.1.15,2013-07-03 05:28:00,
2013-07-03 00:58:00,64.5,56.4,30.03,ESE,118,3.0,5.0,75,0.00,,,0.00,Wunderground v.1.15,2013-07-03 05:58:00,
2013-07-03 01:28:00,64.3,55.8,30.03,ESE,117,2.0,2.0,74,0.00,,,0.00,Wunderground v.1.15,2013-07-03 06:28:00,
2013-07-03 02:28:00,61.5,56.0,30.02,SE,126,2.0,3.0,82,0.00,,,0.00,Wunderground v.1.15,2013-07-03 07:28:00,
2013-07-03 02:58:00,60.7,55.5,30.02,SE,137,2.0,2.0,83,0.00,,,0.00,Wunderground v.1.15,2013-07-03 07:58:00,
2013-07-03 03:28:00,59.9,55.1,30.02,SE,126,2.0,2.0,84,0.00,,,0.00,Wunderground v.1.15,2013-07-03 08:28:00,
2013-07-03 04:28:00,59.0,54.5,30.02,SE,126,0.0,0.0,85,0.00,,,0.00,Wunderground v.1.15,2013-07-03 09:28:00,
2013-07-03 04:58:00,58.4,54.5,30.02,SE,126,1.0,1.0,87,0.00,,,0.00,Wunderground v.1.15,2013-07-03 09:58:00,
2013-07-03 05:28:00,58.3,54.1,30.02,SE,125,2.0,2.0,86,0.00,,,0.00,Wunderground v.1.15,2013-07-03 10:28:00,
2013-07-03 05:58:00,57.8,54.0,30.02,SE,125,0.0,0.0,87,0.00,,,0.00,Wunderground v.1.15,2013-07-03 10:58:00,
2013-07-03 06:28:00,58.9,54.4,30.03,SE,135,2.0,2.0,85,0.00,,,0.00,Wunderground v.1.15,2013-07-03 11:28:00,
2013-07-03 06:58:00,60.4,54.9,30.03,ESE,111,2.0,4.0,82,0.00,,,0.00,Wunderground v.1.15,2013-07-03 11:58:00,
2013-07-03 07:28:00,62.9,55.2,30.03,ESE,119,2.0,2.0,76,0.00,,,0.00,Wunderground v.1.15,2013-07-03 12:28:00,
2013-07-03 07:58:00,64.8,53.6,30.03,ESE,113,2.0,2.0,67,0.00,,,0.00,Wunderground v.1.15,2013-07-03 12:58:00,
2013-07-03 08:28:00,66.6,54.0,30.04,SSE,149,1.0,3.0,64,0.00,,,0.00,Wunderground v.1.15,2013-07-03 13:28:00,
2013-07-03 08:58:00,68.4,54.9,30.03,ESE,118,2.0,2.0,62,0.00,,,0.00,Wunderground v.1.15,2013-07-03 13:58:00,
2013-07-03 09:28:00,69.8,55.7,30.03,SSE,163,1.0,1.0,61,0.00,,,0.00,Wunderground v.1.15,2013-07-03 14:28:00,
2013-07-03 09:58:00,71.8,55.7,30.02,West,262,1.0,3.0,57,0.00,,,0.00,Wunderground v.1.15,2013-07-03 14:58:00,
2013-07-03 10:28:00,72.8,57.2,30.02,West,265,0.0,1.0,58,0.00,,,0.00,Wunderground v.1.15,2013-07-03 15:28:00,
2013-07-03 10:58:00,73.5,56.3,30.00,ESE,113,4.0,4.0,55,0.00,,,0.00,Wunderground v.1.15,2013-07-03 15:58:00,
2013-07-03 11:28:00,74.9,56.6,30.00,SSE,153,4.0,4.0,53,0.00,,,0.00,Wunderground v.1.15,2013-07-03 16:28:00,
2013-07-03 11:59:00,76.0,55.5,30.01,South,190,1.0,2.0,49,0.00,,,0.00,Wunderground v.1.15,2013-07-03 16:59:00,
2013-07-03 12:28:00,76.1,52.6,30.00,South,171,3.0,3.0,44,0.00,,,0.00,Wunderground v.1.15,2013-07-03 17:28:00,
2013-07-03 13:28:00,77.4,53.8,29.98,SE,144,5.0,5.0,44,0.00,,,0.00,Wunderground v.1.15,2013-07-03 18:28:00,
2013-07-03 14:28:00,78.6,51.6,29.98,East,90,5.0,5.0,39,0.00,,,0.00,Wunderground v.1.15,2013-07-03 19:28:00,
2013-07-03 14:58:00,78.5,52.2,29.97,East,81,6.0,7.0,40,0.00,,,0.00,Wunderground v.1.15,2013-07-03 19:58:00,
2013-07-03 15:28:00,78.5,54.1,29.97,ESE,107,6.0,9.0,43,0.00,,,0.00,Wunderground v.1.15,2013-07-03 20:28:00,
2013-07-03 15:58:00,77.2,52.3,29.96,ESE,111,7.0,7.0,42,0.00,,,0.00,Wunderground v.1.15,2013-07-03 20:58:00,
2013-07-03 16:28:00,78.5,50.1,29.95,ESE,114,5.0,8.0,37,0.00,,,0.00,Wunderground v.1.15,2013-07-03 21:28:00,
2013-07-03 16:58:00,78.6,48.7,29.95,SE,124,5.0,5.0,35,0.00,,,0.00,Wunderground v.1.15,2013-07-03 21:58:00,
2013-07-03 17:28:00,78.6,47.9,29.95,SE,130,3.0,3.0,34,0.00,,,0.00,Wunderground v.1.15,2013-07-03 22:28:00,
2013-07-03 17:58:00,78.8,48.8,29.94,ESE,115,3.0,5.0,35,0.00,,,0.00,Wunderground v.1.15,2013-07-03 22:58:00,
2013-07-03 18:28:00,78.6,48.7,29.94,SSE,166,1.0,1.0,35,0.00,,,0.00,Wunderground v.1.15,2013-07-03 23:28:00,
2013-07-03 18:58:00,78.5,50.1,29.93,ESE,110,3.0,11.0,37,0.00,,,0.00,Wunderground v.1.15,2013-07-03 23:58:00,
2013-07-03 19:58:00,76.5,50.4,29.94,SSE,153,6.0,6.0,40,0.00,,,0.00,Wunderground v.1.15,2013-07-04 00:58:00,
2013-07-03 20:28:00,75.8,50.4,29.94,SE,124,4.0,10.0,41,0.00,,,0.00,Wunderground v.1.15,2013-07-04 01:28:00,
2013-07-03 20:58:00,73.5,51.4,29.94,SE,126,5.0,5.0,46,0.00,,,0.00,Wunderground v.1.15,2013-07-04 01:58:00,
2013-07-03 21:28:00,72.3,52.6,29.94,ESE,123,4.0,4.0,50,0.00,,,0.00,Wunderground v.1.15,2013-07-04 02:28:00,
2013-07-03 22:58:00,70.1,56.9,29.96,SE,142,3.0,3.0,63,0.00,,,0.00,Wunderground v.1.15,2013-07-04 03:58:00,
2013-07-03 23:28:00,69.6,57.3,29.95,ESE,122,2.0,2.0,65,0.00,,,0.00,Wunderground v.1.15,2013-07-04 04:28:00,
2013-07-03 23:58:00,68.9,57.5,29.95,SE,132,3.0,4.0,67,0.00,,,0.00,Wunderground v.1.15,2013-07-04 04:58:00,